| time (UTC) | temp F | wind direction | speed knots | gust knots | rain 1hr in | rain 24hr in | rain mn in | humidity % | barometer mb |
| 20260507141538 | 56 | 196 | 0.0 | 0.9 | 0.00 | 0.00 | 0.00 | 49 | 1016.6 |
| 20260507141044 | 56 | 250 | 0.0 | 0.9 | 0.00 | 0.00 | 0.00 | 51 | 1016.6 |
| 20260507140529 | 55 | 223 | 0.0 | 0.9 | 0.00 | 0.00 | 0.00 | 53 | 1016.6 |
| 20260507140035 | 55 | 223 | 0.0 | 0.0 | 0.00 | 0.00 | 0.00 | 55 | 1016.7 |
| 20260507135521 | 54 | 201 | 0.0 | 0.0 | 0.00 | 0.00 | 0.00 | 57 | 1016.7 |
| 20260507135030 | 54 | 163 | 0.0 | 0.0 | 0.00 | 0.00 | 0.00 | 57 | 1016.7 |
| 20260507134536 | 53 | 194 | 0.0 | 0.0 | 0.00 | 0.00 | 0.00 | 59 | 1016.7 |
| 20260507134023 | 53 | 195 | 0.0 | 0.0 | 0.00 | 0.00 | 0.00 | 58 | 1016.7 |
| 20260507133549 | 53 | 191 | 0.0 | 0.0 | 0.00 | 0.00 | 0.00 | 60 | 1016.7 |
| 20260507133031 | 52 | 192 | 0.0 | 0.0 | 0.00 | 0.00 | 0.00 | 61 | 1016.8 |
| 20260507132536 | 52 | 168 | 0.0 | 0.0 | 0.00 | 0.00 | 0.00 | 61 | 1016.9 |
| 20260507132059 | 51 | 202 | 0.0 | 0.0 | 0.00 | 0.00 | 0.00 | 61 | 1016.8 |
| 20260507131524 | 51 | 180 | 0.0 | 0.0 | 0.00 | 0.00 | 0.00 | 64 | 1016.9 |
| 20260507131027 | 50 | 181 | 0.0 | 0.0 | 0.00 | 0.00 | 0.00 | 65 | 1016.9 |
| 20260507130532 | 50 | 180 | 0.0 | 0.0 | 0.00 | 0.00 | 0.00 | 66 | 1016.9 |
| 20260507130038 | 49 | 180 | 0.0 | 0.0 | 0.00 | 0.00 | 0.00 | 66 | 1016.9 |
| 20260507125523 | 49 | 186 | 0.0 | 0.0 | 0.00 | 0.00 | 0.00 | 67 | 1016.9 |
| 20260507125030 | 48 | 200 | 0.0 | 0.0 | 0.00 | 0.00 | 0.00 | 68 | 1016.9 |
| 20260507124534 | 48 | 200 | 0.0 | 0.0 | 0.00 | 0.00 | 0.00 | 68 | 1016.9 |
| 20260507124019 | 48 | 192 | 0.0 | 0.0 | 0.00 | 0.00 | 0.00 | 70 | 1016.8 |
| 20260507123527 | 47 | 200 | 0.0 | 0.0 | 0.00 | 0.00 | 0.00 | 72 | 1016.7 |
| 20260507123034 | 47 | 212 | 0.0 | 0.0 | 0.00 | 0.00 | 0.00 | 73 | 1016.7 |
| 20260507122520 | 46 | 208 | 0.0 | 0.0 | 0.00 | 0.00 | 0.00 | 74 | 1016.6 |
| 20260507122048 | 46 | 208 | 0.0 | 0.0 | 0.00 | 0.00 | 0.00 | 77 | 1016.6 |
| 20260507121533 | 45 | 215 | 0.0 | 0.0 | 0.00 | 0.00 | 0.00 | 79 | 1016.6 |
| 20260507121039 | 45 | 215 | 0.0 | 0.0 | 0.00 | 0.00 | 0.00 | 79 | 1016.6 |
| 20260507120526 | 45 | 215 | 0.0 | 0.0 | 0.00 | 0.00 | 0.00 | 80 | 1016.5 |
| 20260507120031 | 45 | 216 | 0.0 | 0.0 | 0.00 | 0.00 | 0.00 | 80 | 1016.5 |
| 20260507115542 | 45 | 219 | 0.0 | 0.0 | 0.00 | 0.00 | 0.00 | 81 | 1016.4 |
| 20260507115028 | 45 | 220 | 0.0 | 0.0 | 0.00 | 0.00 | 0.00 | 80 | 1016.4 |
| 20260507114554 | 45 | 227 | 0.0 | 0.0 | 0.00 | 0.00 | 0.00 | 80 | 1016.4 |
| 20260507114039 | 45 | 230 | 0.0 | 0.0 | 0.00 | 0.00 | 0.00 | 80 | 1016.3 |
| 20260507113525 | 45 | 252 | 0.0 | 0.0 | 0.00 | 0.00 | 0.00 | 80 | 1016.3 |
| 20260507113052 | 45 | 252 | 0.0 | 0.0 | 0.00 | 0.00 | 0.00 | 80 | 1016.2 |
| 20260507112535 | 45 | 252 | 0.0 | 0.0 | 0.00 | 0.00 | 0.00 | 80 | 1016.2 |
| 20260507112021 | 45 | 252 | 0.0 | 0.0 | 0.00 | 0.00 | 0.00 | 80 | 1016.2 |
| 20260507111528 | 45 | 254 | 0.0 | 0.0 | 0.00 | 0.00 | 0.00 | 80 | 1016.2 |
| 20260507111035 | 45 | 297 | 0.0 | 0.0 | 0.00 | 0.00 | 0.00 | 79 | 1016.2 |
| 20260507110522 | 45 | 297 | 0.0 | 0.0 | 0.00 | 0.00 | 0.00 | 79 | 1016.0 |
| 20260507110045 | 45 | 297 | 0.0 | 0.0 | 0.00 | 0.00 | 0.00 | 79 | 1016.1 |
| 20260507105530 | 45 | 297 | 0.0 | 0.0 | 0.00 | 0.00 | 0.00 | 79 | 1016.0 |
| 20260507105030 | 45 | 297 | 0.0 | 0.0 | 0.00 | 0.00 | 0.00 | 78 | 1016.0 |
| 20260507104534 | 45 | 297 | 0.0 | 0.0 | 0.00 | 0.00 | 0.00 | 79 | 1015.8 |
| 20260507104020 | 45 | 297 | 0.0 | 0.0 | 0.00 | 0.00 | 0.00 | 79 | 1015.9 |
| 20260507103526 | 45 | 297 | 0.0 | 0.0 | 0.00 | 0.00 | 0.00 | 79 | 1016.0 |
| 20260507103052 | 45 | 297 | 0.0 | 0.0 | 0.00 | 0.00 | 0.00 | 79 | 1016.0 |
| 20260507102537 | 45 | 297 | 0.0 | 0.0 | 0.00 | 0.00 | 0.00 | 80 | 1016.0 |
| 20260507102023 | 45 | 299 | 0.0 | 0.0 | 0.00 | 0.00 | 0.00 | 80 | 1016.0 |
| 20260507101529 | 44 | 299 | 0.0 | 0.0 | 0.00 | 0.00 | 0.00 | 81 | 1016.0 |
| 20260507101035 | 44 | 299 | 0.0 | 0.0 | 0.00 | 0.00 | 0.00 | 81 | 1016.0 |
| 20260507100542 | 44 | 299 | 0.0 | 0.0 | 0.00 | 0.00 | 0.00 | 82 | 1015.9 |
| 20260507100027 | 44 | 299 | 0.0 | 0.0 | 0.00 | 0.00 | 0.00 | 83 | 1016.1 |
| 20260507095532 | 44 | 299 | 0.0 | 0.0 | 0.00 | 0.00 | 0.00 | 84 | 1016.1 |
| 20260507095034 | 43 | 299 | 0.0 | 0.0 | 0.00 | 0.00 | 0.00 | 84 | 1016.0 |
| 20260507094523 | 43 | 299 | 0.0 | 0.0 | 0.00 | 0.00 | 0.00 | 85 | 1016.1 |
| 20260507094029 | 43 | 299 | 0.0 | 0.0 | 0.00 | 0.00 | 0.00 | 86 | 1016.0 |
| 20260507093534 | 43 | 299 | 0.0 | 0.0 | 0.00 | 0.00 | 0.00 | 86 | 1016.0 |
| 20260507093037 | 43 | 299 | 0.0 | 0.0 | 0.00 | 0.00 | 0.00 | 86 | 1016.1 |
| 20260507092521 | 42 | 299 | 0.0 | 0.0 | 0.00 | 0.00 | 0.00 | 87 | 1016.2 |
| 20260507092023 | 42 | 299 | 0.0 | 0.0 | 0.00 | 0.00 | 0.00 | 87 | 1016.2 |
| 20260507091529 | 42 | 299 | 0.0 | 0.0 | 0.00 | 0.00 | 0.00 | 87 | 1015.9 |
| 20260507091031 | 41 | 299 | 0.0 | 0.0 | 0.00 | 0.00 | 0.00 | 87 | 1015.9 |
| 20260507090532 | 41 | 299 | 0.0 | 0.0 | 0.00 | 0.00 | 0.00 | 87 | 1016.0 |
| 20260507090019 | 41 | 299 | 0.0 | 0.0 | 0.00 | 0.00 | 0.00 | 87 | 1015.9 |
| 20260507085528 | 41 | 299 | 0.0 | 0.0 | 0.00 | 0.00 | 0.00 | 87 | 1015.6 |
| 20260507085030 | 41 | 299 | 0.0 | 0.0 | 0.00 | 0.00 | 0.00 | 86 | 1015.7 |
| 20260507084535 | 41 | 299 | 0.0 | 0.0 | 0.00 | 0.00 | 0.00 | 86 | 1015.8 |
| 20260507084020 | 41 | 299 | 0.0 | 0.0 | 0.00 | 0.00 | 0.00 | 86 | 1015.9 |
| 20260507083546 | 41 | 299 | 0.0 | 0.0 | 0.00 | 0.00 | 0.00 | 85 | 1015.8 |
| 20260507083049 | 41 | 299 | 0.0 | 0.0 | 0.00 | 0.00 | 0.00 | 85 | 1015.8 |
| 20260507082554 | 41 | 299 | 0.0 | 0.0 | 0.00 | 0.00 | 0.00 | 85 | 1015.9 |
| 20260507082036 | 41 | 299 | 0.0 | 0.0 | 0.00 | 0.00 | 0.00 | 85 | 1015.8 |
| 20260507081520 | 41 | 299 | 0.0 | 0.0 | 0.00 | 0.00 | 0.00 | 85 | 1015.9 |
| 20260507081023 | 41 | 299 | 0.0 | 0.0 | 0.00 | 0.00 | 0.00 | 85 | 1015.8 |
| 20260507080528 | 41 | 299 | 0.0 | 0.0 | 0.00 | 0.00 | 0.00 | 85 | 1015.8 |
| 20260507080034 | 42 | 299 | 0.0 | 0.0 | 0.00 | 0.00 | 0.00 | 84 | 1016.0 |
| 20260507075520 | 42 | 299 | 0.0 | 0.0 | 0.00 | 0.00 | 0.00 | 84 | 1016.0 |
| 20260507075045 | 42 | 299 | 0.0 | 0.0 | 0.00 | 0.00 | 0.00 | 84 | 1016.1 |
| 20260507074532 | 42 | 299 | 0.0 | 0.0 | 0.00 | 0.00 | 0.00 | 84 | 1016.1 |
| 20260507074036 | 42 | 299 | 0.0 | 0.0 | 0.00 | 0.00 | 0.00 | 84 | 1016.1 |
| 20260507073521 | 42 | 299 | 0.0 | 0.0 | 0.00 | 0.00 | 0.00 | 84 | 1016.2 |
| 20260507073028 | 42 | 299 | 0.0 | 0.0 | 0.00 | 0.00 | 0.00 | 84 | 1016.3 |
| 20260507072533 | 42 | 299 | 0.0 | 0.0 | 0.00 | 0.00 | 0.00 | 83 | 1016.3 |
| 20260507072020 | 42 | 299 | 0.0 | 0.0 | 0.00 | 0.00 | 0.00 | 83 | 1016.4 |
| 20260507071524 | 42 | 299 | 0.0 | 0.0 | 0.00 | 0.00 | 0.00 | 82 | 1016.6 |
| 20260507071029 | 42 | 299 | 0.0 | 0.0 | 0.00 | 0.00 | 0.00 | 82 | 1016.6 |
| 20260507070553 | 42 | 299 | 0.0 | 0.0 | 0.00 | 0.00 | 0.00 | 82 | 1016.5 |
| 20260507070037 | 42 | 299 | 0.0 | 0.0 | 0.00 | 0.00 | 0.00 | 82 | 1016.5 |
| 20260507065542 | 42 | 299 | 0.0 | 0.0 | 0.00 | 0.00 | 0.00 | 82 | 1016.5 |
| 20260507065027 | 42 | 299 | 0.0 | 0.0 | 0.00 | 0.00 | 0.00 | 81 | 1016.5 |
| 20260507064537 | 42 | 299 | 0.0 | 0.0 | 0.00 | 0.00 | 0.00 | 81 | 1016.5 |
| 20260507064022 | 42 | 299 | 0.0 | 0.0 | 0.00 | 0.00 | 0.00 | 81 | 1016.5 |
| 20260507063527 | 42 | 299 | 0.0 | 0.0 | 0.00 | 0.00 | 0.00 | 81 | 1016.5 |
| 20260507063034 | 42 | 299 | 0.0 | 0.0 | 0.00 | 0.00 | 0.00 | 80 | 1016.5 |
| 20260507062538 | 43 | 299 | 0.0 | 0.0 | 0.00 | 0.00 | 0.00 | 81 | 1016.5 |
| 20260507062022 | 43 | 299 | 0.0 | 0.0 | 0.00 | 0.00 | 0.00 | 81 | 1016.5 |
| 20260507061527 | 43 | 299 | 0.0 | 0.0 | 0.00 | 0.00 | 0.00 | 80 | 1016.5 |
| 20260507061033 | 43 | 299 | 0.0 | 0.0 | 0.00 | 0.00 | 0.00 | 80 | 1016.6 |
| 20260507060519 | 43 | 299 | 0.0 | 0.0 | 0.00 | 0.00 | 0.00 | 80 | 1016.5 |
| 20260507060025 | 43 | 299 | 0.0 | 0.0 | 0.00 | 0.00 | 0.00 | 80 | 1016.5 |
| 20260507055534 | 44 | 299 | 0.0 | 0.0 | 0.00 | 0.00 | 0.00 | 80 | 1016.4 |
| 20260507055058 | 44 | 299 | 0.0 | 0.0 | 0.00 | 0.00 | 0.00 | 80 | 1016.5 |
| 20260507054522 | 44 | 299 | 0.0 | 0.0 | 0.00 | 0.00 | 0.00 | 79 | 1016.5 |
| 20260507054047 | 44 | 299 | 0.0 | 0.0 | 0.00 | 0.00 | 0.00 | 78 | 1016.6 |
| 20260507053532 | 44 | 299 | 0.0 | 0.0 | 0.00 | 0.00 | 0.00 | 78 | 1016.7 |
| 20260507053037 | 44 | 299 | 0.0 | 0.0 | 0.00 | 0.00 | 0.00 | 77 | 1016.7 |
| 20260507052523 | 44 | 299 | 0.0 | 0.0 | 0.00 | 0.00 | 0.00 | 76 | 1016.6 |
| 20260507052029 | 45 | 299 | 0.0 | 0.0 | 0.00 | 0.00 | 0.00 | 76 | 1016.6 |
| 20260507051554 | 45 | 299 | 0.0 | 0.0 | 0.00 | 0.00 | 0.00 | 76 | 1016.6 |
| 20260507051038 | 45 | 299 | 0.0 | 0.0 | 0.00 | 0.00 | 0.00 | 75 | 1016.5 |
| 20260507050524 | 45 | 299 | 0.0 | 0.0 | 0.00 | 0.00 | 0.00 | 75 | 1016.4 |
| 20260507050029 | 46 | 299 | 0.0 | 0.0 | 0.00 | 0.00 | 0.00 | 74 | 1016.5 |
| 20260507045555 | 46 | 299 | 0.0 | 0.0 | 0.00 | 0.00 | 0.00 | 73 | 1016.5 |
| 20260507045022 | 46 | 299 | 0.0 | 0.0 | 0.00 | 0.00 | 0.00 | 72 | 1016.5 |
| 20260507044527 | 46 | 299 | 0.0 | 0.0 | 0.00 | 0.00 | 0.00 | 73 | 1016.4 |
| 20260507044052 | 47 | 299 | 0.0 | 0.0 | 0.00 | 0.00 | 0.00 | 73 | 1016.4 |
| 20260507043536 | 46 | 299 | 0.0 | 0.0 | 0.00 | 0.00 | 0.00 | 73 | 1016.4 |
| 20260507043041 | 46 | 299 | 0.0 | 0.0 | 0.00 | 0.00 | 0.00 | 71 | 1016.4 |
| 20260507042546 | 47 | 299 | 0.0 | 0.0 | 0.00 | 0.01 | 0.00 | 70 | 1016.4 |
| 20260507042030 | 47 | 299 | 0.0 | 0.0 | 0.00 | 0.01 | 0.00 | 69 | 1016.3 |
| 20260507041536 | 47 | 299 | 0.0 | 0.0 | 0.00 | 0.01 | 0.00 | 69 | 1016.4 |
| 20260507041021 | 47 | 299 | 0.0 | 0.0 | 0.00 | 0.01 | 0.00 | 68 | 1016.4 |
| 20260507040527 | 47 | 299 | 0.0 | 0.0 | 0.00 | 0.01 | 0.00 | 68 | 1016.3 |
| 20260507040033 | 48 | 299 | 0.0 | 0.0 | 0.00 | 0.01 | 0.00 | 67 | 1016.3 |
| 20260507035539 | 48 | 299 | 0.0 | 0.0 | 0.00 | 0.01 | 0.00 | 67 | 1016.4 |
| 20260507035024 | 48 | 299 | 0.0 | 0.0 | 0.00 | 0.01 | 0.00 | 66 | 1016.3 |
| 20260507034533 | 48 | 299 | 0.0 | 0.0 | 0.00 | 0.01 | 0.00 | 65 | 1016.3 |
| 20260507034039 | 49 | 299 | 0.0 | 0.0 | 0.00 | 0.01 | 0.00 | 65 | 1016.3 |
| 20260507033523 | 49 | 299 | 0.0 | 0.0 | 0.00 | 0.01 | 0.00 | 64 | 1016.2 |
| 20260507033028 | 49 | 299 | 0.0 | 0.0 | 0.00 | 0.01 | 0.00 | 64 | 1016.3 |
| 20260507032533 | 50 | 299 | 0.0 | 0.0 | 0.00 | 0.01 | 0.00 | 64 | 1016.3 |
| 20260507032019 | 50 | 300 | 0.0 | 0.0 | 0.00 | 0.01 | 0.00 | 62 | 1016.3 |
| 20260507031525 | 50 | 300 | 0.0 | 0.0 | 0.00 | 0.01 | 0.00 | 61 | 1016.3 |
| 20260507031030 | 50 | 300 | 0.0 | 0.0 | 0.00 | 0.01 | 0.00 | 59 | 1016.3 |
| 20260507030555 | 51 | 299 | 0.0 | 0.0 | 0.00 | 0.01 | 0.00 | 58 | 1016.2 |
| 20260507030039 | 51 | 299 | 0.0 | 0.0 | 0.00 | 0.01 | 0.00 | 58 | 1016.2 |
| 20260507025543 | 51 | 300 | 0.0 | 0.0 | 0.00 | 0.01 | 0.00 | 58 | 1016.2 |
| 20260507025026 | 51 | 300 | 0.0 | 0.0 | 0.00 | 0.01 | 0.00 | 57 | 1016.2 |
| 20260507024531 | 51 | 300 | 0.0 | 0.0 | 0.00 | 0.01 | 0.00 | 57 | 1016.2 |
| 20260507024020 | 51 | 54 | 0.0 | 0.0 | 0.00 | 0.01 | 0.00 | 56 | 1016.0 |
| 20260507023527 | 51 | 54 | 0.0 | 0.0 | 0.00 | 0.01 | 0.00 | 55 | 1016.0 |
| 20260507023052 | 52 | 54 | 0.0 | 0.0 | 0.00 | 0.01 | 0.00 | 55 | 1016.0 |
| 20260507022537 | 52 | 54 | 0.0 | 0.0 | 0.00 | 0.01 | 0.00 | 54 | 1015.9 |
| 20260507022022 | 52 | 54 | 0.0 | 0.0 | 0.00 | 0.01 | 0.00 | 54 | 1015.9 |
| 20260507021527 | 52 | 54 | 0.0 | 0.0 | 0.00 | 0.01 | 0.00 | 54 | 1015.8 |
| 20260507021032 | 53 | 54 | 0.0 | 0.0 | 0.00 | 0.01 | 0.00 | 53 | 1015.8 |
| 20260507020537 | 53 | 54 | 0.0 | 0.0 | 0.00 | 0.01 | 0.00 | 53 | 1015.6 |
| 20260507020021 | 53 | 55 | 0.0 | 0.0 | 0.00 | 0.01 | 0.00 | 51 | 1015.6 |
| 20260507015527 | 54 | 55 | 0.0 | 0.0 | 0.00 | 0.01 | 0.00 | 51 | 1015.5 |
| 20260507015032 | 54 | 55 | 0.0 | 0.0 | 0.00 | 0.01 | 0.00 | 50 | 1015.5 |
| 20260507014521 | 54 | 55 | 0.0 | 0.0 | 0.00 | 0.01 | 0.00 | 50 | 1015.5 |
| 20260507014046 | 55 | 55 | 0.0 | 0.0 | 0.00 | 0.01 | 0.00 | 49 | 1015.5 |
| 20260507013529 | 55 | 55 | 0.0 | 0.0 | 0.00 | 0.01 | 0.00 | 48 | 1015.5 |
| 20260507013034 | 56 | 55 | 0.0 | 0.0 | 0.00 | 0.01 | 0.00 | 47 | 1015.4 |
| 20260507012520 | 56 | 61 | 0.0 | 0.0 | 0.00 | 0.01 | 0.00 | 46 | 1015.4 |
| 20260507012026 | 56 | 61 | 0.0 | 0.0 | 0.00 | 0.01 | 0.00 | 46 | 1015.4 |
| 20260507011533 | 57 | 66 | 0.0 | 0.0 | 0.00 | 0.01 | 0.00 | 45 | 1015.4 |
| 20260507011019 | 57 | 11 | 0.0 | 0.0 | 0.00 | 0.01 | 0.00 | 44 | 1015.3 |
| 20260507010525 | 57 | 323 | 0.0 | 0.0 | 0.00 | 0.01 | 0.00 | 45 | 1015.2 |
| 20260507010052 | 58 | 323 | 0.0 | 0.0 | 0.00 | 0.01 | 0.00 | 44 | 1015.2 |
| 20260507005534 | 58 | 350 | 0.0 | 0.0 | 0.00 | 0.01 | 0.00 | 42 | 1015.0 |
| 20260507005023 | 58 | 28 | 0.0 | 0.0 | 0.00 | 0.01 | 0.00 | 43 | 1015.0 |
| 20260507004548 | 58 | 22 | 0.0 | 0.0 | 0.00 | 0.01 | 0.00 | 43 | 1014.9 |
| 20260507004033 | 58 | 27 | 0.0 | 0.9 | 0.00 | 0.01 | 0.00 | 44 | 1014.8 |
| 20260507003537 | 59 | 355 | 0.0 | 0.9 | 0.00 | 0.01 | 0.00 | 43 | 1014.7 |
| 20260507003041 | 59 | 17 | 0.0 | 0.9 | 0.00 | 0.01 | 0.00 | 43 | 1014.6 |
| 20260507002545 | 59 | 57 | 0.0 | 0.9 | 0.00 | 0.02 | 0.00 | 42 | 1014.5 |
| 20260507002049 | 59 | 53 | 0.0 | 0.0 | 0.00 | 0.02 | 0.00 | 42 | 1014.4 |
| 20260507001533 | 59 | 285 | 0.0 | 0.0 | 0.00 | 0.02 | 0.00 | 41 | 1014.3 |
| 20260507001057 | 60 | 348 | 0.0 | 0.9 | 0.00 | 0.02 | 0.00 | 41 | 1014.3 |
| 20260507000542 | 60 | 30 | 0.0 | 0.0 | 0.00 | 0.02 | 0.00 | 41 | 1014.2 |
| 20260507000045 | 60 | 275 | 0.0 | 0.0 | 0.00 | 0.02 | 0.00 | 42 | 1014.2 |
| 20260506235529 | 61 | 37 | 0.0 | 0.0 | 0.00 | 0.02 | 0.00 | 41 | 1014.1 |
| 20260506235034 | 61 | 291 | 0.0 | 0.0 | 0.00 | 0.02 | 0.00 | 40 | 1014.2 |
| 20260506234521 | 61 | 38 | 0.0 | 0.9 | 0.00 | 0.02 | 0.00 | 39 | 1014.1 |
| 20260506234026 | 62 | 69 | 0.0 | 0.9 | 0.00 | 0.02 | 0.00 | 39 | 1014.2 |
| 20260506233531 | 62 | 279 | 0.0 | 0.9 | 0.00 | 0.02 | 0.00 | 39 | 1014.2 |
| 20260506233020 | 62 | 39 | 0.0 | 0.9 | 0.00 | 0.02 | 0.00 | 37 | 1014.3 |
| 20260506232524 | 62 | 302 | 0.0 | 0.0 | 0.00 | 0.02 | 0.00 | 39 | 1014.2 |
| 20260506232029 | 62 | 85 | 0.0 | 0.0 | 0.00 | 0.02 | 0.00 | 39 | 1014.2 |
| 20260506231534 | 62 | 69 | 0.0 | 0.9 | 0.00 | 0.02 | 0.00 | 39 | 1014.2 |
| 20260506231020 | 62 | 5 | 0.0 | 0.9 | 0.00 | 0.02 | 0.00 | 40 | 1014.0 |
| 20260506230545 | 62 | 342 | 0.0 | 0.9 | 0.00 | 0.02 | 0.00 | 39 | 1014.1 |
| 20260506230029 | 62 | 19 | 0.0 | 0.9 | 0.00 | 0.02 | 0.00 | 40 | 1014.1 |
| 20260506225555 | 62 | 78 | 0.0 | 2.6 | 0.00 | 0.02 | 0.00 | 39 | 1014.3 |
| 20260506225059 | 62 | 313 | 0.0 | 2.6 | 0.00 | 0.02 | 0.00 | 38 | 1014.4 |
| 20260506224523 | 62 | 126 | 0.0 | 1.7 | 0.00 | 0.02 | 0.00 | 40 | 1014.3 |
| 20260506224028 | 63 | 49 | 0.0 | 1.7 | 0.00 | 0.02 | 0.00 | 37 | 1014.2 |
| 20260506223534 | 63 | 117 | 0.0 | 0.9 | 0.00 | 0.02 | 0.00 | 38 | 1014.2 |
| 20260506223059 | 63 | 34 | 0.0 | 1.7 | 0.00 | 0.02 | 0.00 | 38 | 1014.1 |
| 20260506222523 | 62 | 12 | 0.0 | 1.7 | 0.00 | 0.04 | 0.00 | 38 | 1014.3 |
| 20260506222031 | 62 | 58 | 0.0 | 1.7 | 0.00 | 0.04 | 0.00 | 38 | 1014.2 |
| 20260506221536 | 62 | 42 | 0.0 | 1.7 | 0.00 | 0.04 | 0.00 | 39 | 1014.2 |
| 20260506221021 | 62 | 70 | 0.0 | 2.6 | 0.00 | 0.04 | 0.00 | 39 | 1014.1 |
| 20260506220526 | 62 | 80 | 0.0 | 1.7 | 0.00 | 0.04 | 0.00 | 39 | 1014.1 |
| 20260506220051 | 62 | 61 | 0.0 | 1.7 | 0.00 | 0.04 | 0.00 | 37 | 1014.0 |
| 20260506215535 | 63 | 30 | 0.0 | 0.9 | 0.00 | 0.04 | 0.00 | 38 | 1014.0 |
| 20260506215021 | 63 | 26 | 0.0 | 0.9 | 0.00 | 0.04 | 0.00 | 37 | 1014.2 |
| 20260506214526 | 63 | 34 | 0.0 | 1.7 | 0.00 | 0.04 | 0.00 | 37 | 1014.2 |
| 20260506214051 | 63 | 23 | 0.0 | 1.7 | 0.00 | 0.04 | 0.00 | 39 | 1014.2 |
| 20260506213535 | 63 | 355 | 0.0 | 0.9 | 0.00 | 0.04 | 0.00 | 39 | 1014.2 |
| 20260506213041 | 64 | 42 | 0.0 | 1.7 | 0.00 | 0.04 | 0.00 | 39 | 1014.3 |
| 20260506212525 | 64 | 44 | 0.0 | 1.7 | 0.00 | 0.04 | 0.00 | 39 | 1014.2 |
| 20260506212030 | 64 | 113 | 0.0 | 1.7 | 0.00 | 0.04 | 0.00 | 38 | 1014.1 |
| 20260506211520 | 64 | 82 | 0.0 | 1.7 | 0.00 | 0.04 | 0.00 | 37 | 1014.2 |
| 20260506211044 | 64 | 50 | 0.0 | 0.9 | 0.00 | 0.04 | 0.00 | 39 | 1014.2 |
| 20260506210528 | 64 | 32 | 0.0 | 1.7 | 0.00 | 0.04 | 0.00 | 39 | 1014.4 |
| 20260506210054 | 64 | 305 | 0.0 | 2.6 | 0.00 | 0.04 | 0.00 | 37 | 1014.6 |
| 20260506205538 | 64 | 360 | 0.0 | 2.6 | 0.00 | 0.04 | 0.00 | 37 | 1014.5 |
| 20260506205043 | 63 | 332 | 0.0 | 3.5 | 0.00 | 0.04 | 0.00 | 39 | 1014.5 |
| 20260506204528 | 63 | 355 | 0.9 | 3.5 | 0.00 | 0.04 | 0.00 | 38 | 1014.5 |
| 20260506204033 | 63 | 39 | 0.9 | 2.6 | 0.00 | 0.04 | 0.00 | 37 | 1014.3 |
| 20260506203519 | 64 | 9 | 0.0 | 4.3 | 0.00 | 0.04 | 0.00 | 37 | 1014.6 |
| 20260506203024 | 63 | 46 | 0.0 | 4.3 | 0.00 | 0.04 | 0.00 | 38 | 1014.7 |
| 20260506202529 | 63 | 63 | 0.0 | 2.6 | 0.00 | 0.07 | 0.00 | 36 | 1014.8 |
| 20260506202033 | 64 | 71 | 0.0 | 4.3 | 0.00 | 0.07 | 0.00 | 36 | 1014.9 |
| 20260506201524 | 64 | 46 | 0.0 | 4.3 | 0.00 | 0.07 | 0.00 | 36 | 1014.7 |
| 20260506201029 | 65 | 55 | 0.0 | 0.9 | 0.00 | 0.07 | 0.00 | 36 | 1014.8 |
| 20260506200535 | 65 | 306 | 0.0 | 1.7 | 0.00 | 0.07 | 0.00 | 37 | 1015.0 |
| 20260506200019 | 65 | 46 | 0.0 | 1.7 | 0.00 | 0.07 | 0.00 | 36 | 1014.9 |
| 20260506195525 | 65 | 350 | 0.0 | 0.9 | 0.00 | 0.07 | 0.00 | 36 | 1015.1 |
| 20260506195030 | 64 | 329 | 0.0 | 0.9 | 0.00 | 0.07 | 0.00 | 39 | 1015.1 |
| 20260506194535 | 64 | 73 | 0.0 | 2.6 | 0.00 | 0.07 | 0.00 | 38 | 1015.1 |
| 20260506194020 | 64 | 34 | 0.0 | 2.6 | 0.00 | 0.07 | 0.00 | 37 | 1015.3 |
| 20260506193525 | 64 | 5 | 0.0 | 0.0 | 0.00 | 0.07 | 0.00 | 38 | 1015.2 |
| 20260506193031 | 63 | 113 | 0.0 | 2.6 | 0.00 | 0.07 | 0.00 | 42 | 1015.2 |
| 20260506192519 | 62 | 78 | 0.0 | 2.6 | 0.00 | 0.07 | 0.00 | 41 | 1015.4 |
| 20260506192024 | 62 | 69 | 0.0 | 2.6 | 0.00 | 0.07 | 0.00 | 44 | 1015.5 |
| 20260506191549 | 61 | 46 | 0.0 | 1.7 | 0.00 | 0.07 | 0.00 | 42 | 1015.5 |
| 20260506191033 | 62 | 105 | 0.0 | 1.7 | 0.00 | 0.07 | 0.00 | 41 | 1015.5 |
| 20260506190559 | 63 | 42 | 0.0 | 1.7 | 0.00 | 0.07 | 0.00 | 40 | 1015.6 |
| 20260506190023 | 65 | 74 | 0.0 | 1.7 | 0.00 | 0.07 | 0.00 | 38 | 1015.8 |
| 20260506185549 | 64 | 184 | 0.0 | 0.9 | 0.00 | 0.07 | 0.00 | 41 | 1015.8 |
| 20260506185033 | 64 | 279 | 0.0 | 0.9 | 0.00 | 0.07 | 0.00 | 39 | 1015.8 |
| 20260506184558 | 63 | 260 | 0.0 | 0.9 | 0.00 | 0.07 | 0.00 | 42 | 1016.0 |
| 20260506184021 | 64 | 360 | 0.0 | 0.9 | 0.00 | 0.07 | 0.00 | 41 | 1015.9 |
| 20260506183526 | 64 | 83 | 0.0 | 1.7 | 0.00 | 0.07 | 0.00 | 39 | 1015.9 |
| 20260506183031 | 64 | 313 | 0.0 | 1.7 | 0.00 | 0.07 | 0.00 | 41 | 1015.9 |
| 20260506182536 | 63 | 53 | 0.0 | 1.7 | 0.00 | 0.07 | 0.00 | 42 | 1015.9 |
| 20260506182042 | 62 | 274 | 0.0 | 1.7 | 0.00 | 0.07 | 0.00 | 42 | 1016.1 |
| 20260506181525 | 63 | 47 | 0.0 | 0.9 | 0.00 | 0.07 | 0.00 | 42 | 1016.1 |
| 20260506181035 | 62 | 19 | 0.0 | 0.9 | 0.00 | 0.07 | 0.00 | 44 | 1016.2 |
| 20260506180540 | 63 | 32 | 0.0 | 0.0 | 0.00 | 0.07 | 0.00 | 46 | 1016.1 |
| 20260506180024 | 63 | 188 | 0.0 | 0.0 | 0.00 | 0.07 | 0.00 | 46 | 1016.3 |
| 20260506175529 | 62 | 332 | 0.0 | 0.0 | 0.00 | 0.07 | 0.00 | 45 | 1016.2 |
| 20260506175035 | 62 | 283 | 0.0 | 3.5 | 0.00 | 0.07 | 0.00 | 45 | 1016.2 |
| 20260506174540 | 61 | 36 | 0.0 | 1.7 | 0.00 | 0.07 | 0.00 | 46 | 1016.3 |
| 20260506174025 | 62 | 66 | 0.0 | 1.7 | 0.00 | 0.07 | 0.00 | 44 | 1016.3 |
| 20260506173528 | 61 | 70 | 0.0 | 1.7 | 0.00 | 0.07 | 0.00 | 44 | 1016.3 |
| 20260506173052 | 61 | 287 | 0.0 | 1.7 | 0.00 | 0.07 | 0.00 | 45 | 1016.3 |
| 20260506172558 | 61 | 55 | 0.0 | 0.9 | 0.00 | 0.07 | 0.00 | 45 | 1016.3 |
| 20260506172021 | 61 | 108 | 0.0 | 2.6 | 0.00 | 0.07 | 0.00 | 44 | 1016.3 |
| 20260506171527 | 61 | 355 | 0.0 | 2.6 | 0.00 | 0.07 | 0.00 | 42 | 1016.4 |
| 20260506171030 | 61 | 31 | 0.0 | 0.9 | 0.00 | 0.07 | 0.00 | 44 | 1016.3 |
| 20260506170555 | 61 | 119 | 0.0 | 1.7 | 0.00 | 0.07 | 0.00 | 45 | 1016.2 |
| 20260506170038 | 61 | 355 | 0.0 | 1.7 | 0.00 | 0.07 | 0.00 | 45 | 1016.1 |
| 20260506165527 | 60 | 69 | 0.0 | 1.7 | 0.00 | 0.07 | 0.00 | 45 | 1016.0 |
| 20260506165028 | 60 | 32 | 0.0 | 1.7 | 0.00 | 0.07 | 0.00 | 46 | 1016.1 |
| 20260506164528 | 59 | 332 | 0.0 | 0.9 | 0.00 | 0.07 | 0.00 | 48 | 1015.8 |
| 20260506164033 | 58 | 76 | 0.0 | 7.0 | 0.00 | 0.07 | 0.00 | 50 | 1015.8 |
| 20260506163559 | 57 | 84 | 0.0 | 7.0 | 0.00 | 0.07 | 0.00 | 46 | 1015.8 |
| 20260506163045 | 58 | 61 | 0.0 | 6.1 | 0.00 | 0.07 | 0.00 | 46 | 1015.8 |
| 20260506162531 | 57 | 63 | 0.0 | 6.1 | 0.00 | 0.20 | 0.00 | 47 | 1015.8 |
| 20260506162034 | 57 | 360 | 0.0 | 1.7 | 0.00 | 0.20 | 0.00 | 49 | 1015.8 |
| 20260506161521 | 57 | 50 | 0.0 | 0.0 | 0.00 | 0.20 | 0.00 | 54 | 1015.6 |
| 20260506161026 | 57 | 65 | 0.0 | 0.9 | 0.00 | 0.20 | 0.00 | 53 | 1015.8 |
| 20260506160533 | 57 | 82 | 0.0 | 0.9 | 0.00 | 0.20 | 0.00 | 52 | 1015.8 |
| 20260506160019 | 57 | 61 | 0.0 | 0.9 | 0.00 | 0.20 | 0.00 | 51 | 1015.8 |
| 20260506155529 | 57 | 276 | 0.0 | 0.0 | 0.00 | 0.20 | 0.00 | 53 | 1015.6 |
| 20260506155034 | 56 | 90 | 0.0 | 0.9 | 0.00 | 0.20 | 0.00 | 54 | 1015.5 |
| 20260506154519 | 56 | 64 | 0.0 | 0.9 | 0.00 | 0.20 | 0.00 | 55 | 1015.5 |
| 20260506154023 | 55 | 82 | 0.0 | 0.9 | 0.00 | 0.20 | 0.00 | 58 | 1015.4 |
| 20260506153528 | 55 | 64 | 0.0 | 3.5 | 0.00 | 0.20 | 0.00 | 56 | 1015.3 |
| 20260506153055 | 55 | 46 | 0.0 | 3.5 | 0.00 | 0.20 | 0.00 | 55 | 1015.3 |
| 20260506152519 | 55 | 347 | 0.0 | 1.7 | 0.00 | 0.20 | 0.20 | 57 | 1015.2 |
| 20260506152022 | 54 | 53 | 0.0 | 1.7 | 0.00 | 0.20 | 0.20 | 57 | 1015.3 |
| 20260506151547 | 54 | 91 | 0.0 | 1.7 | 0.00 | 0.20 | 0.20 | 56 | 1015.2 |
| 20260506151052 | 54 | 30 | 0.0 | 0.9 | 0.00 | 0.20 | 0.20 | 58 | 1015.3 |
| 20260506150556 | 53 | 327 | 0.0 | 0.9 | 0.00 | 0.20 | 0.20 | 59 | 1015.2 |
| 20260506150039 | 53 | 66 | 0.0 | 0.0 | 0.00 | 0.20 | 0.20 | 59 | 1015.2 |
| 20260506145543 | 53 | 42 | 0.0 | 0.0 | 0.00 | 0.20 | 0.20 | 63 | 1015.3 |
| 20260506145024 | 53 | 58 | 0.0 | 0.9 | 0.00 | 0.20 | 0.20 | 61 | 1015.3 |
| 20260506144531 | 53 | 57 | 0.0 | 0.9 | 0.00 | 0.20 | 0.20 | 61 | 1015.3 |
| 20260506144037 | 53 | 64 | 0.0 | 0.9 | 0.00 | 0.20 | 0.20 | 63 | 1015.3 |
| 20260506143538 | 52 | 73 | 0.0 | 0.9 | 0.00 | 0.20 | 0.20 | 65 | 1015.3 |
| 20260506143024 | 51 | 32 | 0.0 | 0.9 | 0.00 | 0.20 | 0.20 | 65 | 1015.3 |
| 20260506142549 | 51 | 71 | 0.0 | 0.0 | 0.00 | 0.20 | 0.20 | 64 | 1015.3 |
| 20260506142031 | 51 | 71 | 0.0 | 0.0 | 0.00 | 0.20 | 0.20 | 66 | 1015.3 |